Temperature
16 16 16 15 15 15 15 15 15 15 14 14 14 14 13 13 13 13 13 13 13 13 12 12 12 12 12 12 12 12 12 12 12 12 12 11 11 11 11 11 11 11 11
16 16 16 15 15 15 15 15 14 14 14 14 14 13 13 13 13 13 13 13 13 12 12 12 12 12 12 12 12 12 12 12 12 12 11 11 11 11 11 11 11 11 11
16 15 15 15 15 14 14 14 14 14 14 13 13 13 13 13 13 13 12 12 12 12 12 12 12 12 12 12 12 12 12 12 11 11 11 11 11 11 11 11 11 11 11
15 15 15 15 14 14 14 14 14 13 13 13 13 13 13 13 12 12 12 12 12 12 12 12 12 12 12 12 12 12 12 12 11 11 11 11 11 11 11 11 11 11 11
15 15 14 14 14 14 14 13 13 13 13 13 12 12 12 12 12 12 12 12 12 12 11 11 11 11 11 11 11 11 11 11 11 11 11 11 11 11 11 11 10 10 10
14 14 14 14 14 13 13 13 13 12 12 12 12 12 12 12 11 11 11 11 11 11 11 11 11 11 11 11 11 11 11 11 11 11 11 11 11 11 11 10 10 10 10
14 14 13 13 13 13 13 13 12 12 12 12 12 12 11 11 11 11 11 11 11 11 11 11 11 11 11 11 11 11 11 11 11 11 11 11 11 11 10 10 10 10 10
13 13 13 13 13 13 12 12 12 12 12 11 11 11 11 11 11 11 11 10 10 10 10 10 10 10 10 10 10 11 11 11 10 10 10 10 10 10 10 10 10 10 10
13 13 13 12 12 12 12 12 12 11 11 11 11 10 10 10 10 10 10 10 10 10 10 10 10 10 10 10 10 10 10 10 10 10 10 10 10 10 10 10 10 9 9
13 13 12 12 12 12 11 11 11 11 11 10 10 10 10 10 10 9 9 10 10 9 9 9 9 9 9 9 9 10 10 10 10 10 10 10 10 9 9 9 9 9 9
12 12 12 12 11 11 11 11 11 10 10 10 10 9 9 9 9 9 9 9 9 9 9 9 9 9 9 9 9 9 9 9 9 9 9 9 9 9 9 9 9 9 9
12 12 11 11 11 10 10 10 10 10 10 10 9 9 9 9 9 9 9 9 9 9 9 9 9 9 9 9 9 9 9 9 9 9 9 9 9 9 9 9 9 8 8
11 11 11 11 10 10 10 10 9 9 9 9 9 9 9 8 8 8 8 8 8 8 8 8 8 8 8 8 8 8 8 8 8 8 8 8 8 8 8 8 8 8 8
11 11 10 10 10 9 9 9 9 9 8 8 8 8 8 8 8 8 8 8 8 8 7 7 7 7 7 7 8 8 8 8 8 8 8 8 7 8 8 8 8 8 8
10 10 10 10 9 9 9 9 8 8 8 8 8 7 7 7 7 7 7 7 7 7 7 7 7 7 7 7 7 7 7 7 7 7 7 7 7 7 7 7 7 7 7
10 10 9 9 9 8 8 8 8 8 8 7 7 7 7 7 7 7 7 7 7 7 6 6 6 6 6 6 6 6 6 6 6 6 6 6 6 6 6 7 6 6 6
9 9 9 8 8 8 8 8 7 7 7 7 7 7 7 7 7 7 7 6 6 6 6 6 6 6 6 6 6 6 6 6 6 6 6 6 6 6 6 6 6 6 6
9 8 8 8 8 7 7 7 7 7 6 6 6 6 6 6 6 6 6 6 6 6 6 5 5 5 5 5 5 5 5 5 5 5 5 5 5 5 5 5 5 5 5
8 8 8 7 7 7 6 6 6 6 6 6 6 6 6 6 6 5 5 5 5 5 5 5 5 5 5 5 5 4 4 5 5 5 5 5 5 4 4 5 5 5 5
8 7 7 7 6 6 6 6 6 5 5 5 5 5 5 5 5 5 5 5 5 4 4 4 4 4 4 4 4 4 4 4 4 4 4 4 4 4 4 4 4 4 4
7 7 7 6 6 6 5 5 5 5 5 5 5 4 4 4 4 4 4 4 4 4 4 4 4 4 4 4 4 4 4 4 4 4 4 4 4 4 3 3 3 4 4
7 7 6 6 6 5 5 5 5 5 4 4 4 4 4 4 4 4 4 3 3 3 3 3 3 3 3 3 3 3 3 3 3 3 3 3 3 3 3 3 3 3 3
6 6 6 5 5 5 5 4 4 4 4 4 4 4 4 4 3 3 3 3 3 3 3 3 3 3 3 3 3 3 3 3 3 3 3 3 2 2 2 2 2 2 2
6 5 5 5 5 4 4 4 4 4 4 4 4 3 3 3 3 3 3 3 2 2 2 2 2 2 2 2 2 2 2 2 2 2 2 2 2 2 2 2 2 2 2
5 5 5 4 4 4 4 4 3 3 3 3 3 3 3 3 2 2 2 2 2 2 2 2 2 2 2 2 2 2 2 2 2 2 2 2 2 1 1 1 1 1 1
5 4 4 4 4 4 3 3 3 3 3 3 2 2 2 2 2 2 2 2 2 2 2 2 1 1 1 1 1 1 1 1 1 1 1 1 1 1 1 1 1 1 1
Wind_Speed
3 3 3 2 2 2 2 2 2 1 1 1 2 2 2 2 2 2 2 2 2 2 2 2 2 2 2 2 2 2 2 3 3 3 2 1 1 2 1 3 4 4 5
4 4 4 3 3 2 2 1 1 1 1 1 1 1 1 1 2 3 3 2 2 2 3 2 2 2 2 2 2 2 3 3 4 3 2 1 2 2 2 2 2 3 4
4 4 4 3 3 2 1 1 1 1 0 0 1 1 1 1 2 3 3 2 2 3 3 3 3 3 3 2 2 3 3 3 3 3 3 2 2 1 1 2 2 2 3
4 4 3 2 2 2 1 2 2 1 1 1 0 1 1 0 1 1 2 2 2 3 3 3 4 4 5 4 3 4 3 2 2 2 2 2 2 1 0 1 2 2 3
5 5 3 2 2 2 2 1 1 1 1 0 1 0 0 0 1 1 2 2 2 2 2 3 4 4 4 4 3 4 3 3 3 2 2 1 2 1 2 2 2 2 3
5 4 3 2 2 2 1 1 2 1 1 1 1 1 0 0 1 0 0 1 1 1 2 3 3 2 3 4 4 4 5 5 5 4 3 4 5 4 3 2 2 0 2
5 3 3 2 2 1 1 1 1 1 1 1 1 1 1 2 2 1 0 1 1 2 2 2 2 2 2 2 3 3 4 6 7 6 6 6 6 5 4 3 3 3 4
4 3 2 2 1 1 1 1 0 0 1 0 1 1 1 3 3 2 1 1 1 2 2 2 2 3 3 2 1 2 3 4 5 6 6 7 6 6 6 6 5 3 2
3 2 2 2 2 1 1 0 0 0 0 0 0 1 2 3 4 3 1 0 1 2 2 2 2 3 4 3 2 2 4 4 5 6 7 7 7 7 5 3 2 1 2
3 2 2 2 2 1 1 1 0 0 0 1 1 1 1 3 4 3 1 0 1 2 2 2 3 3 4 3 2 3 4 4 3 3 3 4 4 5 6 6 5 4 2
3 2 2 1 2 2 1 0 0 1 1 1 1 2 2 2 4 4 2 1 1 2 2 3 3 5 4 3 2 3 5 4 2 2 2 2 2 2 3 4 5 5 4
3 3 2 1 1 2 1 0 1 1 1 1 1 2 3 3 3 3 3 2 1 1 2 3 3 5 4 3 2 4 4 1 1 1 1 2 2 3 3 4 4 5 6
4 3 2 1 1 1 1 1 0 0 0 1 1 2 3 3 3 4 4 3 3 1 2 4 4 4 3 3 4 4 2 0 1 2 3 3 3 3 2 2 2 2 3
4 2 1 1 0 1 1 1 0 1 0 1 1 2 2 3 3 3 2 3 3 3 3 3 3 3 2 2 3 3 2 1 2 3 3 3 2 2 2 1 2 1 1
3 2 1 1 1 0 0 1 1 2 2 2 2 2 2 3 4 4 3 2 2 2 1 1 2 2 2 2 2 2 2 2 2 2 3 3 2 2 2 2 2 1 2
3 2 1 1 1 0 0 2 3 2 2 2 2 2 3 3 4 4 4 4 3 1 1 1 1 2 2 2 2 3 2 3 3 3 3 3 3 3 3 2 1 2 3
3 2 1 1 1 1 1 1 1 4 4 3 3 3 3 4 4 4 3 3 2 1 0 1 2 2 3 3 3 3 3 4 3 3 3 3 3 3 3 3 2 2 3
3 2 2 2 2 2 2 2 1 1 2 3 4 4 4 4 4 4 3 2 2 1 1 2 3 3 3 3 3 4 4 3 3 3 3 3 3 3 3 3 3 3 3
2 2 2 2 2 2 1 1 1 1 1 2 3 3 4 3 3 3 2 1 2 3 3 3 3 3 3 3 3 3 3 3 3 3 3 4 3 3 4 4 4 5 4
2 2 2 2 1 1 1 1 1 1 1 2 2 3 2 2 2 2 2 2 2 3 3 4 4 3 3 3 3 3 3 3 3 3 3 4 4 4 4 5 4 4 4
2 2 2 1 2 2 2 2 2 2 2 2 3 3 2 1 2 2 2 2 2 3 3 3 3 3 3 3 2 2 3 3 3 3 3 4 4 4 4 4 4 4 4
2 2 2 2 2 2 2 2 2 2 2 3 3 3 3 2 2 2 2 3 3 2 3 3 3 3 3 2 2 2 3 3 3 3 3 4 3 3 3 3 4 4 4
3 2 2 2 2 2 2 2 2 3 3 3 3 3 2 2 2 2 2 3 3 2 2 2 3 3 3 3 3 2 3 3 3 3 3 3 3 3 3 4 4 5 5
3 3 3 2 2 2 3 3 3 3 3 3 3 3 3 3 3 3 2 2 2 2 2 2 2 3 4 3 4 4 4 4 4 4 4 3 3 3 3 3 4 5 5
3 3 3 3 3 3 3 3 3 3 3 3 2 2 2 2 2 2 2 2 3 3 3 3 2 3 3 4 4 4 5 6 6 5 3 3 3 3 3 4 4 5 5
3 3 2 2 2 2 2 3 3 2 2 2 2 2 2 2 2 2 2 2 2 3 3 2 3 3 4 4 5 5 6 6 7 6 4 3 3 3 3 3 5 5 5
Wind_Direction
153 149 146 155 148 142 158 180 187 187 165 158 163 158 178 192 176 159 174 173 179 206 213 199 220 213 197 202 187 170 177 168 201 254 256 267 232 262 273 244 244 240 244
149 137 130 126 120 118 133 181 189 181 181 158 141 145 177 183 175 164 176 173 187 214 230 214 233 229 223 221 201 196 200 192 186 215 240 252 247 244 263 278 261 245 238
135 124 117 118 118 118 132 133 133 138 78 62 114 147 194 191 175 178 176 178 193 217 224 215 224 211 227 231 218 214 217 204 184 188 221 229 256 268 291 297 301 283 255
127 121 118 124 131 133 117 114 113 112 99 78 224 187 185 190 163 186 179 185 211 228 232 227 227 219 221 220 217 218 210 194 185 187 220 236 246 261 243 277 303 298 286
124 123 131 136 116 101 82 82 101 106 104 129 97 67 126 159 196 204 203 211 222 239 258 251 243 242 234 227 220 212 200 197 191 200 222 230 240 230 237 232 246 281 294
125 129 129 116 97 85 80 78 81 74 51 58 60 62 28 295 323 250 188 183 203 228 269 283 275 266 267 261 247 228 207 201 203 202 215 221 236 229 222 217 208 245 283
127 131 126 119 106 83 64 69 86 72 58 40 12 28 354 319 332 329 326 170 195 235 243 257 280 295 279 273 278 277 250 232 213 203 211 224 223 219 202 210 211 206 232
129 130 126 123 121 81 66 62 22 92 105 50 6 341 332 332 342 343 352 159 216 252 239 225 248 273 280 258 254 287 279 267 241 224 220 228 227 219 203 207 211 213 262
127 139 148 146 135 108 94 62 338 74 29 2 346 336 326 323 344 347 6 280 278 283 277 267 258 258 282 272 230 252 277 284 275 253 244 239 237 228 200 160 158 160 250
157 157 146 144 141 147 166 177 302 247 267 353 356 323 309 313 338 344 322 239 281 295 306 302 286 285 290 272 227 228 254 271 278 281 271 264 254 239 215 199 191 193 206
157 132 106 113 133 142 147 149 84 40 27 22 0 337 329 327 332 340 338 231 248 276 289 295 293 300 297 286 257 238 258 263 249 251 265 278 283 266 244 223 204 195 201
128 120 116 106 110 103 110 77 76 89 50 8 356 339 330 324 327 327 328 307 302 252 272 282 289 305 302 295 278 297 300 279 208 233 260 268 271 269 266 250 233 223 217
121 122 123 108 96 115 128 132 57 81 122 300 320 318 315 318 321 335 330 325 324 296 277 292 299 301 303 300 302 315 324 248 203 237 247 254 258 261 264 272 274 262 257
133 142 137 125 82 37 73 120 175 227 241 260 281 294 304 313 322 331 329 321 321 319 313 314 321 323 316 318 323 311 293 245 233 239 249 259 266 263 253 241 243 236 272
140 145 148 161 173 175 331 247 232 239 222 230 244 248 272 291 297 312 313 301 290 285 328 351 345 338 336 324 318 306 300 299 272 261 249 255 266 266 260 233 216 217 219
143 155 170 179 172 159 357 347 334 324 320 280 260 267 273 287 308 325 327 313 309 314 65 318 294 289 286 284 283 285 281 275 269 261 259 255 255 254 257 248 230 226 238
157 173 181 177 172 180 182 183 322 340 352 344 320 316 321 327 330 330 328 329 331 360 330 271 272 273 277 275 269 264 268 272 270 258 259 262 262 255 251 247 241 246 251
154 173 174 184 189 199 210 221 222 243 309 321 326 332 339 332 331 335 333 4 344 341 289 273 274 276 277 275 273 271 273 277 272 264 257 261 256 251 251 254 244 242 252
162 182 188 194 195 201 206 218 234 246 270 294 312 322 332 331 329 339 351 340 283 282 282 280 277 276 276 274 274 273 272 269 265 260 260 264 260 252 253 255 253 252 252
181 183 172 179 191 205 211 211 225 244 263 277 286 295 316 344 336 331 326 317 300 290 284 279 277 275 274 276 278 279 280 277 267 260 259 259 258 253 254 254 253 253 251
180 186 182 184 201 207 215 221 223 227 244 265 274 280 288 273 276 282 286 290 286 288 293 292 290 285 277 276 274 278 280 282 279 274 269 263 258 259 259 255 251 250 254
175 179 186 204 215 214 220 220 223 236 247 260 272 283 290 279 269 275 285 289 287 285 290 296 298 294 286 277 266 267 277 284 287 287 278 269 264 259 255 252 254 255 254
175 183 196 215 218 221 230 233 234 240 249 254 261 266 273 271 270 272 280 292 298 297 300 304 303 307 311 298 287 267 264 269 273 275 275 269 262 262 257 252 252 259 259
178 190 203 216 226 224 229 242 246 249 253 255 259 261 264 266 271 277 283 292 296 298 299 299 297 303 312 315 310 301 295 293 293 286 272 263 262 266 269 269 263 261 260
184 195 205 216 228 232 236 244 249 251 254 255 255 261 268 269 272 277 286 290 293 299 305 304 303 305 310 314 319 320 318 313 307 302 294 277 268 270 274 279 276 274 265
191 198 208 215 224 228 229 233 239 242 248 257 258 258 261 263 265 272 285 292 297 299 302 304 310 312 312 313 315 321 327 328 323 313 303 294 282 282 284 286 284 278 271
Height
1513 1514 1515 1515 1516 1516 1516 1516 1516 1515 1515 1514 1514 1513 1513 1513 1512 1512 1512 1513 1513 1513 1514 1514 1514 1514 1514 1514 1514 1514 1514 1514 1513 1513 1513 1513 1512 1511 1510 1509 1508 1507 1506
1511 1512 1513 1513 1513 1513 1513 1513 1513 1513 1513 1512 1511 1511 1510 1510 1509 1509 1510 1510 1510 1510 1511 1511 1511 1511 1511 1511 1511 1511 1511 1511 1511 1510 1510 1510 1510 1509 1508 1507 1506 1505 1504
1509 1509 1510 1511 1511 1511 1511 1510 1510 1510 1510 1509 1509 1508 1508 1507 1507 1507 1507 1507 1508 1508 1508 1508 1508 1509 1508 1508 1508 1508 1508 1508 1508 1508 1507 1507 1507 1507 1506 1505 1504 1503 1502
1506 1507 1508 1508 1508 1508 1508 1508 1507 1507 1507 1507 1506 1506 1505 1505 1505 1505 1505 1505 1505 1505 1505 1506 1506 1506 1506 1505 1505 1505 1505 1505 1505 1505 1504 1504 1504 1504 1503 1502 1501 1500 1499
1504 1505 1505 1506 1506 1506 1506 1505 1505 1504 1504 1504 1503 1503 1503 1502 1502 1502 1502 1502 1502 1502 1502 1502 1503 1503 1502 1502 1502 1502 1502 1501 1501 1501 1501 1501 1500 1500 1500 1499 1498 1498 1497
1502 1502 1503 1503 1503 1503 1503 1502 1502 1501 1501 1501 1500 1500 1500 1500 1500 1500 1500 1499 1499 1499 1499 1499 1499 1499 1499 1499 1499 1499 1499 1498 1498 1498 1497 1497 1497 1497 1497 1496 1496 1495 1493
1499 1500 1500 1500 1501 1500 1500 1500 1500 1499 1498 1498 1497 1497 1497 1497 1497 1497 1497 1496 1496 1496 1495 1495 1495 1495 1495 1495 1495 1495 1495 1495 1495 1495 1494 1494 1494 1494 1494 1493 1493 1492 1491
1497 1497 1498 1498 1498 1498 1498 1498 1497 1497 1496 1495 1495 1494 1494 1493 1493 1493 1493 1493 1492 1492 1492 1492 1492 1492 1492 1491 1491 1491 1491 1491 1491 1491 1491 1491 1491 1491 1491 1490 1490 1489 1488
1494 1495 1495 1495 1495 1496 1495 1495 1495 1494 1494 1493 1492 1491 1491 1490 1490 1490 1490 1489 1489 1488 1489 1488 1488 1488 1488 1488 1488 1487 1487 1487 1487 1487 1487 1487 1487 1487 1487 1487 1486 1485 1484
1492 1493 1493 1493 1493 1493 1493 1493 1492 1492 1491 1491 1490 1489 1488 1487 1487 1487 1487 1486 1485 1485 1485 1484 1484 1484 1484 1484 1484 1483 1483 1483 1483 1482 1482 1482 1482 1482 1482 1482 1482 1481 1481
1490 1491 1491 1491 1491 1491 1491 1491 1490 1490 1489 1488 1488 1487 1486 1485 1484 1484 1484 1483 1482 1481 1480 1480 1480 1480 1480 1480 1480 1480 1479 1479 1478 1478 1478 1478 1478 1478 1478 1478 1478 1478 1477
1488 1489 1489 1489 1489 1489 1489 1488 1488 1487 1487 1486 1485 1484 1483 1482 1482 1481 1480 1480 1479 1478 1477 1476 1476 1476 1476 1476 1476 1475 1475 1475 1474 1474 1474 1474 1474 1473 1473 1474 1474 1474 1473
1486 1486 1487 1487 1486 1486 1486 1486 1485 1485 1484 1483 1482 1481 1480 1480 1479 1478 1477 1476 1475 1475 1474 1473 1473 1473 1472 1472 1472 1472 1471 1471 1470 1470 1469 1469 1470 1470 1470 1469 1469 1469 1469
1483 1484 1484 1484 1484 1484 1483 1483 1483 1482 1481 1480 1480 1479 1478 1477 1476 1475 1474 1473 1472 1472 1471 1470 1469 1469 1468 1468 1467 1467 1467 1467 1466 1466 1465 1466 1466 1465 1465 1465 1465 1465 1465
1481 1481 1481 1481 1481 1481 1481 1480 1480 1479 1479 1478 1477 1476 1475 1473 1473 1472 1471 1470 1469 1468 1467 1467 1466 1465 1464 1463 1463 1463 1462 1462 1462 1461 1461 1461 1461 1461 1461 1461 1461 1460 1460
1478 1478 1478 1478 1478 1478 1478 1477 1477 1477 1476 1476 1475 1474 1473 1472 1470 1469 1468 1467 1466 1466 1464 1463 1462 1461 1460 1460 1459 1458 1458 1458 1457 1457 1457 1456 1456 1455 1455 1456 1456 1456 1455
1475 1475 1475 1475 1475 1475 1474 1474 1473 1473 1473 1473 1472 1471 1470 1468 1467 1466 1465 1464 1463 1462 1461 1459 1458 1457 1457 1456 1455 1455 1454 1454 1453 1453 1452 1452 1451 1451 1451 1451 1451 1451 1451
1472 1472 1473 1472 1472 1472 1471 1471 1470 1470 1469 1468 1468 1468 1466 1465 1464 1463 1462 1461 1459 1458 1457 1456 1455 1454 1453 1452 1451 1450 1450 1449 1449 1448 1448 1447 1447 1446 1446 1446 1446 1446 1446
1469 1469 1469 1469 1469 1469 1468 1468 1467 1467 1466 1465 1464 1464 1463 1462 1460 1459 1458 1457 1455 1454 1453 1452 1451 1450 1449 1448 1447 1446 1445 1444 1444 1444 1443 1443 1442 1441 1441 1441 1441 1441 1441
1466 1466 1466 1466 1466 1465 1465 1464 1464 1463 1463 1462 1461 1460 1459 1458 1456 1455 1454 1453 1451 1450 1449 1448 1447 1446 1445 1444 1443 1442 1441 1440 1439 1439 1438 1438 1437 1436 1436 1435 1436 1436 1436
1463 1463 1463 1463 1462 1462 1462 1461 1461 1460 1459 1458 1457 1457 1456 1454 1453 1451 1450 1449 1448 1446 1445 1444 1443 1441 1440 1439 1438 1437 1436 1435 1434 1434 1433 1432 1432 1431 1431 1430 1430 1431 1431
1459 1459 1459 1459 1459 1459 1458 1458 1457 1457 1456 1455 1453 1453 1452 1451 1449 1448 1447 1445 1444 1443 1442 1440 1439 1437 1436 1435 1434 1433 1431 1430 1430 1429 1428 1427 1427 1426 1426 1425 1425 1426 1426
1456 1455 1456 1455 1455 1455 1455 1454 1453 1453 1452 1451 1450 1449 1448 1447 1445 1444 1443 1442 1441 1439 1438 1436 1435 1433 1432 1431 1430 1429 1427 1426 1425 1424 1423 1423 1422 1422 1421 1421 1421 1421 1421
1452 1452 1452 1452 1451 1451 1451 1450 1449 1448 1448 1447 1446 1445 1444 1443 1442 1440 1439 1438 1437 1436 1434 1433 1431 1430 1429 1427 1426 1425 1423 1422 1421 1420 1419 1418 1418 1418 1417 1417 1416 1416 1416
1448 1448 1448 1448 1447 1447 1447 1446 1445 1444 1443 1443 1442 1441 1440 1439 1437 1436 1435 1434 1433 1432 1431 1429 1428 1426 1425 1423 1422 1421 1419 1418 1417 1416 1415 1415 1414 1414 1413 1413 1412 1412 1412
1444 1444 1444 1444 1444 1443 1443 1442 1441 1440 1439 1439 1438 1437 1436 1435 1434 1433 1431 1431 1429 1428 1427 1426 1424 1423 1421 1420 1419 1417 1416 1414 1413 1412 1411 1410 1410 1409 1409 1408 1407 1407 1407